Precipitable_Water
1.52 1.48 1.49 1.46 1.44 1.42 1.42 1.43 1.38 1.34 1.31 1.29 1.23 1.19 1.21 1.25 1.29 1.33 1.42 1.43 1.48 1.50 1.49 1.47 1.45 1.42 1.42 1.45 1.46 1.45 1.42 1.37 1.35 1.35 1.36 1.34 1.33 1.27 1.23 1.24 1.22 1.21 1.18 1.15 1.18 1.17 1.19 1.21 1.23 1.26 1.29 1.26 1.26 1.28 1.29 1.28 1.27 1.25 1.23 1.19 1.15 1.16 1.10 1.02 0.93 0.92 1.02 1.14 1.13 1.11 1.18 1.21 1.17 1.23 1.22 1.23 1.24 1.29 1.32 1.31 1.31 1.31 1.32 1.33 1.35
1.47 1.47 1.52 1.52 1.48 1.45 1.44 1.44 1.42 1.36 1.30 1.27 1.21 1.18 1.20 1.24 1.30 1.35 1.36 1.42 1.49 1.50 1.51 1.49 1.47 1.43 1.41 1.41 1.45 1.47 1.44 1.38 1.34 1.34 1.34 1.36 1.36 1.34 1.26 1.24 1.24 1.22 1.20 1.17 1.21 1.23 1.23 1.24 1.27 1.32 1.35 1.31 1.31 1.31 1.31 1.30 1.26 1.23 1.21 1.17 1.12 1.12 1.15 1.05 1.00 0.98 0.94 1.08 1.09 1.18 1.18 1.26 1.16 1.26 1.23 1.23 1.25 1.30 1.30 1.31 1.32 1.33 1.33 1.35 1.36
1.47 1.52 1.53 1.52 1.51 1.52 1.50 1.44 1.40 1.35 1.27 1.24 1.17 1.14 1.17 1.24 1.33 1.32 1.34 1.39 1.49 1.53 1.53 1.51 1.48 1.45 1.41 1.41 1.44 1.45 1.43 1.39 1.36 1.34 1.34 1.36 1.38 1.39 1.34 1.27 1.22 1.20 1.18 1.18 1.22 1.25 1.25 1.26 1.30 1.34 1.37 1.34 1.33 1.34 1.36 1.32 1.29 1.24 1.21 1.19 1.13 1.13 1.16 1.14 1.07 0.99 0.98 0.99 1.11 1.12 1.14 1.18 1.17 1.21 1.27 1.27 1.27 1.29 1.26 1.27 1.28 1.32 1.36 1.38 1.38
1.50 1.53 1.54 1.53 1.55 1.54 1.49 1.46 1.41 1.34 1.26 1.21 1.14 1.12 1.17 1.23 1.32 1.34 1.35 1.41 1.45 1.53 1.56 1.54 1.50 1.47 1.42 1.42 1.43 1.42 1.41 1.39 1.36 1.35 1.35 1.37 1.40 1.41 1.39 1.32 1.26 1.23 1.21 1.21 1.24 1.26 1.24 1.24 1.28 1.34 1.36 1.32 1.31 1.32 1.34 1.33 1.27 1.23 1.22 1.22 1.19 1.16 1.16 1.17 1.15 1.08 1.05 0.99 1.07 1.12 1.16 1.15 1.20 1.26 1.26 1.26 1.25 1.24 1.25 1.26 1.30 1.32 1.36 1.40 1.41
1.49 1.52 1.54 1.54 1.56 1.53 1.50 1.48 1.40 1.33 1.26 1.23 1.16 1.14 1.17 1.22 1.30 1.32 1.36 1.40 1.46 1.51 1.54 1.54 1.49 1.47 1.43 1.41 1.40 1.39 1.39 1.39 1.37 1.36 1.38 1.41 1.43 1.45 1.44 1.38 1.31 1.26 1.25 1.25 1.27 1.27 1.25 1.24 1.29 1.34 1.35 1.31 1.31 1.29 1.31 1.28 1.25 1.23 1.21 1.23 1.21 1.19 1.18 1.19 1.20 1.20 1.12 1.06 1.10 1.19 1.23 1.22 1.24 1.23 1.25 1.19 1.21 1.23 1.25 1.24 1.26 1.28 1.31 1.35 1.37
1.48 1.49 1.52 1.53 1.53 1.53 1.52 1.49 1.41 1.35 1.28 1.26 1.22 1.18 1.18 1.21 1.26 1.31 1.37 1.40 1.46 1.50 1.50 1.48 1.46 1.43 1.44 1.43 1.41 1.41 1.42 1.41 1.40 1.39 1.41 1.44 1.46 1.48 1.49 1.46 1.37 1.30 1.29 1.30 1.31 1.30 1.26 1.27 1.30 1.36 1.36 1.30 1.27 1.28 1.29 1.27 1.26 1.23 1.22 1.23 1.23 1.21 1.18 1.19 1.22 1.20 1.17 1.14 1.13 1.12 1.19 1.17 1.17 1.18 1.24 1.24 1.18 1.14 1.15 1.21 1.25 1.27 1.27 1.24 1.27
1.46 1.47 1.50 1.51 1.51 1.53 1.53 1.50 1.46 1.41 1.34 1.29 1.29 1.26 1.21 1.21 1.23 1.26 1.36 1.42 1.46 1.47 1.48 1.45 1.44 1.43 1.43 1.45 1.44 1.43 1.44 1.44 1.43 1.45 1.46 1.48 1.48 1.50 1.52 1.51 1.45 1.37 1.35 1.35 1.37 1.35 1.32 1.31 1.33 1.36 1.35 1.31 1.27 1.25 1.26 1.26 1.25 1.24 1.25 1.25 1.25 1.22 1.19 1.19 1.20 1.18 1.16 1.13 1.14 1.14 1.12 1.18 1.20 1.14 1.24 1.29 1.26 1.22 1.15 1.13 1.14 1.24 1.25 1.22 1.18
1.42 1.44 1.47 1.48 1.48 1.50 1.53 1.56 1.55 1.50 1.43 1.37 1.34 1.30 1.25 1.24 1.23 1.29 1.35 1.38 1.43 1.45 1.44 1.41 1.41 1.42 1.42 1.44 1.47 1.49 1.48 1.46 1.45 1.48 1.49 1.50 1.50 1.51 1.53 1.55 1.52 1.46 1.43 1.41 1.42 1.40 1.37 1.36 1.36 1.38 1.38 1.33 1.29 1.27 1.27 1.25 1.27 1.25 1.29 1.28 1.25 1.21 1.18 1.19 1.20 1.18 1.16 1.13 1.10 1.10 1.15 1.15 1.19 1.24 1.28 1.26 1.19 1.18 1.22 1.19 1.10 1.12 1.16 1.21 1.20
1.39 1.42 1.45 1.44 1.44 1.48 1.53 1.59 1.61 1.59 1.54 1.44 1.35 1.31 1.26 1.24 1.27 1.29 1.31 1.34 1.41 1.44 1.44 1.43 1.39 1.39 1.42 1.44 1.46 1.50 1.49 1.47 1.46 1.46 1.46 1.48 1.52 1.53 1.57 1.60 1.59 1.54 1.47 1.45 1.48 1.49 1.45 1.42 1.40 1.41 1.39 1.34 1.31 1.28 1.29 1.32 1.30 1.26 1.26 1.25 1.22 1.20 1.19 1.20 1.20 1.19 1.17 1.15 1.12 1.16 1.13 1.12 1.13 1.14 1.14 1.14 1.11 1.10 1.19 1.22 1.17 1.18 1.17 1.12 1.12
1.38 1.39 1.39 1.40 1.45 1.52 1.56 1.58 1.58 1.60 1.58 1.49 1.39 1.34 1.30 1.28 1.30 1.29 1.29 1.31 1.35 1.39 1.42 1.43 1.42 1.40 1.39 1.42 1.45 1.47 1.47 1.47 1.45 1.45 1.48 1.49 1.51 1.55 1.58 1.60 1.62 1.63 1.56 1.51 1.51 1.51 1.47 1.41 1.42 1.43 1.40 1.37 1.32 1.30 1.32 1.35 1.35 1.31 1.26 1.26 1.25 1.22 1.20 1.19 1.18 1.18 1.17 1.14 1.13 1.13 1.10 1.09 1.12 1.15 1.14 1.16 1.20 1.21 1.18 1.17 1.10 1.10 1.07 1.01 1.00
1.39 1.37 1.35 1.40 1.48 1.55 1.58 1.59 1.60 1.57 1.57 1.55 1.49 1.42 1.37 1.33 1.31 1.30 1.30 1.29 1.28 1.32 1.37 1.39 1.41 1.43 1.42 1.40 1.40 1.41 1.42 1.43 1.44 1.44 1.45 1.49 1.51 1.53 1.56 1.59 1.66 1.66 1.59 1.47 1.44 1.47 1.46 1.46 1.49 1.48 1.44 1.39 1.35 1.32 1.34 1.36 1.35 1.34 1.33 1.34 1.32 1.28 1.23 1.21 1.20 1.20 1.16 1.14 1.17 1.18 1.17 1.13 1.13 1.16 1.15 1.15 1.16 1.15 1.13 1.11 1.04 0.98 0.91 0.85 0.78
1.37 1.34 1.35 1.44 1.51 1.54 1.57 1.61 1.61 1.58 1.59 1.57 1.53 1.48 1.44 1.38 1.31 1.29 1.29 1.26 1.27 1.29 1.29 1.32 1.37 1.41 1.42 1.42 1.40 1.38 1.37 1.39 1.41 1.42 1.44 1.47 1.51 1.55 1.63 1.64 1.66 1.69 1.67 1.57 1.50 1.51 1.49 1.48 1.50 1.44 1.42 1.39 1.35 1.33 1.34 1.36 1.36 1.36 1.37 1.35 1.34 1.36 1.35 1.29 1.23 1.18 1.19 1.18 1.17 1.17 1.17 1.11 1.09 1.11 1.13 1.15 1.13 1.13 1.10 1.04 0.96 0.92 0.88 0.85 0.84
1.36 1.35 1.39 1.45 1.49 1.54 1.58 1.60 1.61 1.61 1.60 1.60 1.61 1.57 1.48 1.39 1.32 1.27 1.24 1.26 1.28 1.24 1.23 1.27 1.30 1.36 1.39 1.38 1.37 1.38 1.36 1.39 1.40 1.42 1.45 1.49 1.57 1.68 1.71 1.76 1.77 1.77 1.74 1.70 1.61 1.55 1.53 1.51 1.48 1.47 1.40 1.36 1.35 1.34 1.33 1.34 1.36 1.37 1.37 1.36 1.37 1.37 1.36 1.35 1.33 1.26 1.27 1.22 1.18 1.17 1.14 1.13 1.10 1.12 1.19 1.17 1.18 1.06 1.01 0.95 0.93 0.92 0.90 0.86 0.84
1.36 1.34 1.38 1.42 1.47 1.52 1.57 1.59 1.60 1.61 1.64 1.65 1.64 1.58 1.47 1.36 1.31 1.30 1.29 1.31 1.26 1.21 1.21 1.21 1.24 1.27 1.31 1.32 1.33 1.35 1.36 1.38 1.41 1.44 1.48 1.54 1.65 1.77 1.83 1.83 1.81 1.83 1.81 1.74 1.67 1.61 1.57 1.50 1.45 1.45 1.39 1.33 1.32 1.32 1.32 1.31 1.32 1.34 1.33 1.34 1.33 1.35 1.36 1.36 1.34 1.34 1.33 1.28 1.25 1.14 1.20 1.24 1.16 1.18 1.22 1.22 1.10 0.98 0.93 0.87 0.89 0.87 0.86 0.84 0.88
1.28 1.30 1.32 1.37 1.45 1.50 1.54 1.57 1.59 1.64 1.67 1.67 1.64 1.57 1.48 1.38 1.35 1.35 1.34 1.28 1.21 1.16 1.15 1.17 1.19 1.21 1.24 1.28 1.29 1.30 1.33 1.36 1.39 1.44 1.51 1.61 1.73 1.81 1.85 1.88 1.84 1.78 1.81 1.76 1.73 1.66 1.61 1.56 1.53 1.48 1.41 1.34 1.32 1.31 1.30 1.30 1.30 1.29 1.31 1.31 1.31 1.31 1.32 1.32 1.33 1.35 1.37 1.36 1.30 1.26 1.25 1.26 1.23 1.22 1.18 1.11 1.02 0.97 0.95 0.91 0.91 0.91 0.92 0.93 0.89
1.20 1.24 1.27 1.32 1.38 1.44 1.49 1.53 1.58 1.63 1.65 1.65 1.60 1.53 1.49 1.43 1.33 1.34 1.35 1.34 1.31 1.26 1.23 1.22 1.18 1.18 1.22 1.23 1.22 1.21 1.28 1.35 1.39 1.47 1.58 1.70 1.79 1.86 1.88 1.85 1.76 1.79 1.81 1.76 1.73 1.68 1.64 1.61 1.56 1.50 1.45 1.36 1.36 1.36 1.32 1.32 1.30 1.28 1.27 1.28 1.28 1.28 1.28 1.35 1.39 1.40 1.37 1.34 1.32 1.27 1.24 1.23 1.18 1.10 1.02 0.98 0.96 0.97 0.97 0.97 0.95 0.90 0.85 0.79 0.74
1.21 1.23 1.25 1.29 1.35 1.41 1.46 1.50 1.55 1.59 1.62 1.59 1.56 1.53 1.49 1.44 1.40 1.40 1.37 1.35 1.31 1.25 1.18 1.18 1.21 1.19 1.18 1.20 1.21 1.23 1.30 1.37 1.44 1.55 1.67 1.76 1.81 1.83 1.82 1.81 1.80 1.77 1.81 1.82 1.73 1.65 1.59 1.57 1.55 1.49 1.45 1.37 1.35 1.34 1.32 1.32 1.29 1.29 1.28 1.25 1.23 1.21 1.23 1.31 1.36 1.34 1.31 1.29 1.25 1.21 1.17 1.11 1.04 0.99 0.96 0.96 0.96 0.97 0.92 0.84 0.79 0.83 0.77 0.71 0.72
1.20 1.23 1.26 1.32 1.35 1.38 1.42 1.47 1.52 1.57 1.60 1.56 1.55 1.56 1.54 1.50 1.46 1.45 1.35 1.31 1.29 1.25 1.25 1.25 1.25 1.23 1.23 1.25 1.28 1.27 1.32 1.43 1.54 1.65 1.74 1.79 1.83 1.83 1.79 1.78 1.84 1.84 1.80 1.77 1.68 1.60 1.56 1.54 1.49 1.44 1.41 1.36 1.35 1.31 1.31 1.33 1.31 1.28 1.25 1.21 1.16 1.14 1.19 1.25 1.26 1.28 1.28 1.24 1.20 1.14 1.07 1.00 0.96 0.94 0.92 0.93 0.94 0.94 0.85 0.75 0.82 0.82 0.74 0.72 0.66
1.18 1.21 1.25 1.29 1.31 1.35 1.41 1.45 1.49 1.54 1.57 1.57 1.59 1.58 1.55 1.50 1.49 1.49 1.44 1.40 1.34 1.34 1.35 1.31 1.28 1.30 1.30 1.30 1.35 1.38 1.44 1.53 1.62 1.72 1.81 1.82 1.81 1.80 1.79 1.75 1.71 1.75 1.73 1.66 1.62 1.57 1.54 1.50 1.44 1.40 1.36 1.34 1.31 1.30 1.34 1.37 1.34 1.29 1.24 1.18 1.12 1.12 1.17 1.24 1.23 1.19 1.17 1.12 1.06 0.99 0.93 0.90 0.87 0.88 0.91 0.91 0.91 0.92 0.90 0.84 0.80 0.70 0.62 0.60 0.58
1.18 1.22 1.23 1.25 1.30 1.35 1.39 1.40 1.41 1.46 1.50 1.56 1.61 1.60 1.62 1.61 1.57 1.51 1.47 1.46 1.42 1.41 1.39 1.36 1.31 1.30 1.34 1.37 1.44 1.50 1.53 1.58 1.70 1.82 1.85 1.81 1.77 1.79 1.83 1.80 1.77 1.75 1.72 1.62 1.52 1.49 1.48 1.43 1.42 1.36 1.33 1.32 1.32 1.33 1.36 1.38 1.33 1.29 1.24 1.17 1.13 1.11 1.26 1.29 1.22 1.14 1.07 0.97 0.89 0.87 0.84 0.83 0.85 0.88 0.88 0.85 0.84 0.85 0.82 0.79 0.75 0.68 0.59 0.52 0.49
1.17 1.17 1.19 1.25 1.30 1.34 1.38 1.39 1.37 1.38 1.43 1.50 1.57 1.62 1.65 1.62 1.60 1.54 1.50 1.49 1.46 1.44 1.42 1.44 1.44 1.44 1.47 1.48 1.52 1.57 1.61 1.63 1.76 1.86 1.85 1.78 1.77 1.83 1.81 1.82 1.79 1.75 1.65 1.54 1.48 1.42 1.41 1.39 1.37 1.33 1.30 1.30 1.33 1.36 1.36 1.33 1.31 1.28 1.24 1.19 1.20 1.21 1.23 1.14 1.10 1.05 0.93 0.87 0.84 0.81 0.79 0.79 0.83 0.86 0.83 0.80 0.79 0.77 0.75 0.73 0.70 0.65 0.57 0.50 0.47
1.12 1.14 1.20 1.25 1.28 1.32 1.37 1.41 1.43 1.42 1.45 1.52 1.56 1.57 1.64 1.68 1.66 1.63 1.60 1.53 1.48 1.45 1.49 1.53 1.56 1.55 1.53 1.52 1.55 1.59 1.66 1.74 1.85 1.91 1.82 1.77 1.80 1.87 1.82 1.84 1.84 1.74 1.59 1.50 1.46 1.41 1.38 1.37 1.33 1.31 1.30 1.32 1.35 1.36 1.33 1.30 1.30 1.26 1.22 1.26 1.27 1.22 1.16 1.10 1.01 0.92 0.86 0.82 0.79 0.76 0.77 0.79 0.79 0.79 0.78 0.75 0.71 0.70 0.70 0.69 0.66 0.61 0.58 0.56 0.52
1.27 1.24 1.26 1.28 1.30 1.34 1.39 1.44 1.49 1.55 1.55 1.56 1.55 1.55 1.64 1.70 1.74 1.75 1.71 1.65 1.57 1.52 1.50 1.52 1.51 1.49 1.47 1.51 1.59 1.67 1.74 1.85 1.96 1.93 1.85 1.85 1.90 1.90 1.87 1.85 1.78 1.68 1.56 1.46 1.42 1.40 1.40 1.36 1.33 1.33 1.32 1.33 1.33 1.32 1.29 1.27 1.24 1.21 1.19 1.19 1.17 1.14 1.08 0.97 0.90 0.85 0.81 0.78 0.76 0.74 0.76 0.77 0.74 0.72 0.71 0.67 0.66 0.67 0.68 0.68 0.64 0.60 0.58 0.58 0.59
1.29 1.30 1.32 1.34 1.36 1.38 1.40 1.44 1.48 1.54 1.57 1.61 1.60 1.61 1.63 1.66 1.71 1.73 1.75 1.73 1.65 1.54 1.51 1.52 1.51 1.49 1.48 1.57 1.68 1.72 1.74 1.84 2.00 1.97 1.93 1.90 1.90 1.87 1.88 1.77 1.68 1.62 1.57 1.50 1.47 1.42 1.36 1.34 1.35 1.35 1.34 1.33 1.31 1.27 1.24 1.22 1.20 1.18 1.16 1.14 1.11 1.05 0.96 0.91 0.86 0.81 0.78 0.76 0.74 0.74 0.72 0.74 0.74 0.72 0.70 0.69 0.69 0.70 0.70 0.67 0.61 0.58 0.56 0.56 0.56
1.27 1.29 1.30 1.32 1.35 1.42 1.50 1.56 1.62 1.66 1.71 1.74 1.71 1.69 1.66 1.67 1.62 1.67 1.74 1.77 1.74 1.64 1.57 1.53 1.50 1.51 1.56 1.60 1.64 1.68 1.74 1.84 1.86 1.79 1.77 1.86 1.88 1.87 1.83 1.72 1.66 1.63 1.55 1.51 1.47 1.41 1.38 1.37 1.35 1.33 1.31 1.27 1.23 1.21 1.21 1.20 1.18 1.14 1.11 1.09 1.05 0.96 0.91 0.87 0.83 0.80 0.75 0.73 0.73 0.72 0.71 0.72 0.73 0.73 0.74 0.75 0.76 0.76 0.72 0.64 0.60 0.58 0.58 0.56 0.53
1.25 1.25 1.28 1.30 1.33 1.38 1.40 1.47 1.55 1.63 1.70 1.78 1.76 1.78 1.74 1.73 1.69 1.69 1.71 1.73 1.76 1.71 1.63 1.58 1.55 1.60 1.62 1.59 1.59 1.67 1.76 1.79 1.77 1.67 1.63 1.78 1.84 1.83 1.77 1.69 1.66 1.62 1.54 1.46 1.40 1.37 1.35 1.35 1.33 1.29 1.24 1.20 1.18 1.16 1.13 1.12 1.10 1.08 1.07 1.04 0.98 0.93 0.90 0.85 0.82 0.78 0.74 0.74 0.72 0.69 0.70 0.72 0.73 0.74 0.76 0.78 0.75 0.71 0.66 0.58 0.56 0.54 0.54 0.51 0.45
1.27 1.31 1.32 1.34 1.35 1.37 1.36 1.37 1.46 1.55 1.58 1.71 1.82 1.81 1.81 1.83 1.79 1.74 1.69 1.66 1.65 1.67 1.68 1.65 1.63 1.66 1.68 1.62 1.59 1.66 1.70 1.74 1.65 1.54 1.55 1.63 1.73 1.75 1.70 1.66 1.60 1.52 1.46 1.42 1.37 1.34 1.33 1.32 1.28 1.24 1.20 1.19 1.16 1.14 1.12 1.09 1.05 1.03 1.02 1.00 0.96 0.93 0.91 0.87 0.82 0.78 0.76 0.74 0.70 0.70 0.71 0.73 0.76 0.75 0.74 0.74 0.72 0.69 0.62 0.56 0.53 0.51 0.51 0.50 0.42
1.24 1.24 1.30 1.36 1.39 1.36 1.35 1.37 1.41 1.49 1.56 1.61 1.67 1.76 1.80 1.84 1.77 1.71 1.66 1.61 1.55 1.53 1.55 1.62 1.69 1.73 1.75 1.70 1.63 1.65 1.70 1.67 1.56 1.49 1.49 1.60 1.72 1.73 1.65 1.58 1.50 1.44 1.40 1.39 1.36 1.34 1.32 1.29 1.25 1.21 1.17 1.12 1.10 1.08 1.05 1.03 1.03 1.02 0.99 0.96 0.94 0.95 0.95 0.93 0.88 0.83 0.79 0.75 0.72 0.72 0.72 0.73 0.71 0.73 0.75 0.73 0.68 0.61 0.58 0.54 0.51 0.48 0.49 0.47 0.38
1.24 1.28 1.34 1.36 1.37 1.45 1.52 1.61 1.57 1.41 1.31 1.29 1.44 1.53 1.54 1.69 1.78 1.74 1.75 1.79 1.73 1.64 1.63 1.74 1.92 1.99 1.90 1.78 1.67 1.66 1.68 1.55 1.47 1.49 1.48 1.69 1.72 1.59 1.52 1.48 1.45 1.42 1.42 1.41 1.35 1.31 1.27 1.20 1.14 1.10 1.06 1.00 0.98 0.97 0.97 0.98 0.99 1.00 0.96 0.93 0.94 0.95 0.94 0.89 0.80 0.76 0.74 0.72 0.70 0.70 0.69 0.71 0.73 0.74 0.71 0.66 0.60 0.56 0.56 0.52 0.50 0.48 0.47 0.43 0.35
1.31 1.29 1.30 1.30 1.34 1.41 1.45 1.45 1.46 1.45 1.39 1.25 1.24 1.41 1.52 1.52 1.67 1.73 1.72 1.80 1.84 1.85 1.84 1.86 1.88 1.88 1.88 1.89 1.93 1.80 1.59 1.49 1.54 1.48 1.54 1.66 1.66 1.59 1.51 1.48 1.45 1.43 1.41 1.38 1.31 1.20 1.14 1.09 1.06 1.01 0.96 0.94 0.91 0.91 0.93 0.95 0.95 0.93 0.91 0.92 0.95 0.94 0.91 0.86 0.80 0.76 0.76 0.74 0.74 0.73 0.72 0.74 0.72 0.69 0.63 0.58 0.56 0.54 0.53 0.49 0.46 0.48 0.42 0.36 0.30
1.28 1.33 1.35 1.32 1.29 1.27 1.30 1.35 1.40 1.38 1.35 1.35 1.37 1.35 1.42 1.55 1.64 1.72 1.78 1.77 1.76 1.80 1.91 1.99 1.88 1.71 1.82 1.84 1.95 1.88 1.75 1.63 1.52 1.52 1.55 1.60 1.58 1.53 1.51 1.47 1.44 1.41 1.39 1.31 1.21 1.12 1.06 1.01 0.99 0.97 0.95 0.93 0.91 0.92 0.94 0.94 0.93 0.89 0.89 0.93 0.95 0.93 0.90 0.84 0.80 0.79 0.77 0.76 0.75 0.76 0.76 0.73 0.67 0.63 0.58 0.55 0.52 0.50 0.48 0.47 0.46 0.43 0.36 0.31 0.27
1.24 1.27 1.31 1.30 1.28 1.26 1.25 1.25 1.26 1.27 1.30 1.35 1.37 1.37 1.38 1.38 1.48 1.61 1.66 1.73 1.96 2.01 2.00 1.94 1.90 1.89 1.78 1.71 1.70 1.73 1.74 1.66 1.54 1.52 1.51 1.49 1.44 1.43 1.43 1.42 1.40 1.38 1.34 1.28 1.12 1.06 1.04 0.98 0.94 0.92 0.92 0.90 0.91 0.94 0.95 0.95 0.93 0.90 0.90 0.91 0.91 0.92 0.87 0.80 0.79 0.77 0.75 0.75 0.75 0.74 0.71 0.67 0.62 0.58 0.56 0.54 0.50 0.46 0.43 0.41 0.40 0.35 0.30 0.28 0.26
1.35 1.35 1.35 1.33 1.31 1.28 1.25 1.23 1.23 1.26 1.25 1.24 1.30 1.36 1.37 1.34 1.28 1.35 1.61 1.82 2.00 2.12 2.05 1.95 1.97 1.95 1.75 1.61 1.56 1.57 1.57 1.60 1.55 1.49 1.44 1.40 1.38 1.40 1.40 1.38 1.35 1.34 1.29 1.18 1.08 1.02 0.99 0.96 0.93 0.92 0.91 0.89 0.92 0.93 0.95 0.95 0.93 0.92 0.92 0.91 0.89 0.88 0.84 0.81 0.80 0.76 0.75 0.75 0.74 0.69 0.65 0.62 0.60 0.57 0.55 0.51 0.46 0.41 0.39 0.37 0.34 0.30 0.28 0.25 0.24
1.42 1.42 1.41 1.43 1.43 1.41 1.41 1.39 1.36 1.36 1.39 1.44 1.43 1.42 1.34 1.25 1.28 1.46 1.63 1.76 1.79 1.86 1.88 1.95 1.98 1.87 1.72 1.65 1.58 1.54 1.54 1.55 1.50 1.44 1.36 1.36 1.37 1.35 1.34 1.29 1.30 1.29 1.23 1.12 1.06 1.00 0.98 0.94 0.92 0.91 0.90 0.91 0.93 0.95 0.95 0.95 0.94 0.93 0.94 0.93 0.91 0.85 0.79 0.77 0.73 0.72 0.73 0.71 0.66 0.62 0.62 0.60 0.59 0.55 0.50 0.46 0.43 0.40 0.37 0.33 0.29 0.26 0.24 0.24 0.25
1.47 1.52 1.58 1.62 1.62 1.65 1.62 1.61 1.54 1.45 1.47 1.40 1.36 1.36 1.44 1.62 1.76 1.79 1.71 1.57 1.45 1.39 1.50 1.76 1.91 1.88 1.74 1.64 1.58 1.53 1.47 1.44 1.40 1.38 1.37 1.38 1.33 1.31 1.28 1.22 1.16 1.16 1.17 1.14 1.08 1.00 0.95 0.92 0.90 0.89 0.89 0.89 0.92 0.94 0.94 0.94 0.94 0.93 0.93 0.91 0.84 0.76 0.71 0.68 0.67 0.68 0.65 0.62 0.61 0.61 0.60 0.58 0.55 0.50 0.45 0.41 0.38 0.37 0.33 0.29 0.27 0.26 0.24 0.25 0.26
1.46 1.51 1.62 1.70 1.73 1.66 1.66 1.75 1.75 1.73 1.63 1.60 1.67 1.71 1.77 1.76 1.75 1.76 1.71 1.58 1.44 1.50 1.62 1.64 1.68 1.71 1.70 1.62 1.54 1.48 1.44 1.43 1.39 1.41 1.39 1.36 1.33 1.30 1.17 1.13 1.12 1.11 1.09 1.09 1.06 1.02 0.97 0.93 0.90 0.90 0.92 0.92 0.95 0.95 0.95 0.94 0.94 0.94 0.91 0.84 0.77 0.70 0.65 0.63 0.63 0.62 0.61 0.60 0.59 0.58 0.57 0.53 0.48 0.43 0.40 0.39 0.39 0.36 0.31 0.28 0.25 0.25 0.26 0.26 0.27
1.45 1.48 1.55 1.67 1.77 1.80 1.76 1.74 1.74 1.71 1.75 1.71 1.63 1.60 1.58 1.63 1.72 1.74 1.68 1.52 1.38 1.41 1.48 1.53 1.56 1.55 1.54 1.50 1.49 1.47 1.42 1.38 1.40 1.41 1.41 1.39 1.34 1.29 1.21 1.17 1.13 1.11 1.07 1.04 1.00 0.97 0.93 0.92 0.93 0.92 0.93 0.93 0.94 0.95 0.95 0.95 0.94 0.91 0.85 0.80 0.74 0.66 0.63 0.62 0.62 0.61 0.59 0.57 0.56 0.55 0.51 0.46 0.42 0.42 0.41 0.40 0.37 0.33 0.29 0.27 0.26 0.26 0.26 0.26 0.27
1.33 1.39 1.51 1.70 1.78 1.80 1.76 1.72 1.75 1.69 1.60 1.59 1.59 1.58 1.55 1.57 1.55 1.52 1.57 1.46 1.34 1.27 1.31 1.35 1.35 1.30 1.26 1.31 1.42 1.39 1.40 1.42 1.42 1.41 1.39 1.35 1.32 1.27 1.23 1.19 1.14 1.07 1.03 1.00 0.97 0.94 0.91 0.92 0.93 0.92 0.93 0.94 0.94 0.95 0.94 0.93 0.91 0.86 0.81 0.76 0.70 0.64 0.63 0.61 0.60 0.58 0.56 0.55 0.53 0.50 0.47 0.45 0.45 0.44 0.43 0.38 0.34 0.30 0.27 0.26 0.25 0.24 0.24 0.25 0.26
1.42 1.43 1.50 1.70 1.80 1.66 1.68 1.65 1.55 1.54 1.52 1.54 1.59 1.56 1.52 1.47 1.45 1.44 1.38 1.32 1.30 1.30 1.32 1.34 1.34 1.33 1.37 1.41 1.37 1.38 1.38 1.34 1.32 1.28 1.27 1.28 1.29 1.27 1.21 1.15 1.08 1.03 0.99 0.96 0.96 0.94 0.93 0.92 0.94 0.95 0.96 0.95 0.95 0.94 0.92 0.89 0.86 0.82 0.78 0.71 0.65 0.62 0.60 0.58 0.56 0.55 0.54 0.52 0.49 0.48 0.48 0.47 0.46 0.45 0.44 0.39 0.33 0.29 0.26 0.26 0.25 0.24 0.23 0.23 0.24
1.41 1.44 1.46 1.49 1.58 1.70 1.72 1.68 1.67 1.58 1.57 1.57 1.58 1.56 1.52 1.46 1.39 1.35 1.33 1.31 1.33 1.35 1.36 1.35 1.36 1.36 1.38 1.36 1.33 1.35 1.31 1.29 1.28 1.26 1.25 1.23 1.21 1.19 1.15 1.08 1.04 1.01 0.99 0.98 0.98 0.97 0.95 0.95 0.96 0.95 0.95 0.95 0.93 0.91 0.88 0.85 0.82 0.79 0.73 0.66 0.62 0.59 0.58 0.56 0.55 0.54 0.53 0.52 0.51 0.50 0.50 0.47 0.46 0.45 0.44 0.39 0.33 0.30 0.27 0.26 0.25 0.25 0.24 0.23 0.24
1.47 1.46 1.45 1.44 1.44 1.48 1.54 1.58 1.67 1.67 1.57 1.54 1.52 1.50 1.41 1.45 1.47 1.50 1.47 1.46 1.44 1.39 1.36 1.36 1.37 1.40 1.40 1.41 1.42 1.41 1.34 1.28 1.26 1.24 1.21 1.18 1.18 1.15 1.11 1.07 1.04 1.01 1.00 0.98 0.98 0.97 0.96 0.95 0.95 0.95 0.94 0.93 0.91 0.88 0.85 0.83 0.79 0.74 0.68 0.64 0.61 0.59 0.58 0.57 0.57 0.56 0.55 0.54 0.54 0.51 0.49 0.47 0.46 0.44 0.41 0.38 0.36 0.32 0.30 0.28 0.27 0.26 0.24 0.24 0.25
1.55 1.55 1.46 1.47 1.49 1.43 1.46 1.50 1.52 1.55 1.59 1.58 1.51 1.41 1.39 1.43 1.44 1.46 1.45 1.44 1.39 1.33 1.32 1.34 1.37 1.39 1.40 1.42 1.39 1.37 1.31 1.26 1.22 1.18 1.17 1.17 1.15 1.13 1.12 1.11 1.07 1.03 1.01 0.99 0.98 0.98 0.97 0.96 0.95 0.94 0.92 0.90 0.87 0.85 0.82 0.78 0.74 0.70 0.66 0.63 0.61 0.59 0.58 0.58 0.59 0.58 0.57 0.56 0.53 0.50 0.46 0.44 0.44 0.43 0.40 0.38 0.36 0.32 0.29 0.28 0.27 0.25 0.24 0.24 0.25
1.52 1.53 1.54 1.53 1.52 1.52 1.54 1.55 1.52 1.46 1.46 1.50 1.50 1.49 1.49 1.50 1.50 1.47 1.40 1.31 1.33 1.36 1.38 1.35 1.38 1.43 1.42 1.35 1.29 1.26 1.22 1.18 1.15 1.14 1.15 1.15 1.14 1.13 1.12 1.09 1.05 1.03 1.02 1.02 1.02 1.01 0.99 0.96 0.94 0.93 0.89 0.87 0.85 0.82 0.79 0.76 0.72 0.68 0.66 0.63 0.61 0.60 0.59 0.60 0.59 0.58 0.57 0.55 0.50 0.47 0.45 0.44 0.43 0.41 0.40 0.38 0.35 0.31 0.28 0.27 0.26 0.24 0.23 0.24 0.25
1.45 1.48 1.51 1.50 1.48 1.51 1.60 1.60 1.55 1.56 1.55 1.55 1.56 1.54 1.50 1.44 1.40 1.36 1.33 1.33 1.38 1.40 1.44 1.43 1.34 1.31 1.25 1.22 1.18 1.16 1.13 1.14 1.15 1.14 1.13 1.12 1.10 1.09 1.09 1.05 1.01 1.00 1.01 1.01 1.02 1.02 1.00 0.97 0.93 0.90 0.88 0.86 0.84 0.83 0.80 0.76 0.71 0.68 0.65 0.63 0.61 0.60 0.60 0.58 0.57 0.56 0.55 0.52 0.49 0.46 0.44 0.42 0.41 0.40 0.38 0.36 0.33 0.28 0.26 0.24 0.23 0.22 0.23 0.24 0.26
1.42 1.44 1.43 1.46 1.48 1.43 1.43 1.46 1.44 1.46 1.49 1.51 1.52 1.48 1.47 1.43 1.39 1.40 1.41 1.41 1.42 1.42 1.41 1.37 1.38 1.26 1.16 1.12 1.12 1.12 1.12 1.11 1.10 1.09 1.07 1.06 1.06 1.05 1.01 0.98 0.98 0.98 0.99 0.99 1.02 1.02 0.99 0.95 0.91 0.87 0.84 0.84 0.84 0.82 0.78 0.74 0.72 0.69 0.66 0.62 0.59 0.57 0.57 0.56 0.56 0.55 0.53 0.49 0.46 0.44 0.41 0.38 0.37 0.36 0.36 0.35 0.31 0.26 0.22 0.20 0.20 0.22 0.23 0.24 0.26
1.37 1.38 1.40 1.40 1.46 1.50 1.49 1.44 1.40 1.43 1.49 1.46 1.47 1.42 1.42 1.41 1.40 1.39 1.38 1.35 1.39 1.38 1.35 1.32 1.26 1.17 1.12 1.12 1.13 1.11 1.09 1.07 1.05 1.04 1.03 1.04 1.02 0.98 0.98 0.99 1.00 1.00 1.00 1.02 1.02 1.01 0.98 0.93 0.89 0.86 0.84 0.83 0.81 0.78 0.75 0.72 0.71 0.69 0.67 0.65 0.63 0.62 0.60 0.58 0.55 0.52 0.50 0.48 0.45 0.42 0.39 0.36 0.35 0.35 0.35 0.33 0.29 0.25 0.21 0.21 0.22 0.23 0.24 0.25 0.27
1.33 1.35 1.36 1.35 1.33 1.34 1.40 1.47 1.49 1.44 1.50 1.46 1.43 1.40 1.40 1.39 1.38 1.37 1.36 1.34 1.33 1.29 1.26 1.22 1.18 1.15 1.15 1.14 1.13 1.10 1.06 1.02 1.00 1.00 1.01 1.00 0.99 0.99 1.00 1.01 1.02 1.03 1.03 1.04 1.02 0.97 0.92 0.88 0.86 0.86 0.83 0.81 0.78 0.74 0.71 0.68 0.66 0.67 0.68 0.68 0.66 0.62 0.57 0.55 0.54 0.54 0.51 0.48 0.44 0.40 0.37 0.35 0.34 0.34 0.35 0.33 0.28 0.24 0.21 0.20 0.22 0.23 0.25 0.27 0.28
1.31 1.30 1.33 1.34 1.34 1.33 1.32 1.34 1.38 1.42 1.44 1.45 1.47 1.47 1.48 1.45 1.40 1.38 1.37 1.36 1.33 1.29 1.25 1.21 1.19 1.20 1.18 1.14 1.09 1.04 1.02 1.01 1.02 1.02 1.01 1.01 1.01 1.02 1.03 1.04 1.04 1.05 1.04 1.01 0.96 0.91 0.88 0.87 0.85 0.84 0.82 0.79 0.75 0.71 0.67 0.65 0.65 0.66 0.66 0.65 0.61 0.58 0.58 0.58 0.57 0.54 0.50 0.45 0.41 0.38 0.36 0.34 0.32 0.31 0.30 0.28 0.25 0.22 0.19 0.19 0.23 0.25 0.26 0.28 0.29
1.34 1.33 1.32 1.33 1.34 1.35 1.33 1.36 1.34 1.36 1.43 1.45 1.41 1.43 1.47 1.47 1.46 1.43 1.39 1.37 1.31 1.27 1.25 1.23 1.21 1.18 1.12 1.06 1.03 1.01 1.02 1.01 1.00 1.02 1.03 1.04 1.03 1.04 1.05 1.07 1.06 1.04 0.99 0.94 0.92 0.90 0.89 0.88 0.87 0.85 0.81 0.77 0.73 0.69 0.66 0.65 0.64 0.64 0.63 0.61 0.60 0.60 0.60 0.58 0.55 0.49 0.43 0.39 0.36 0.33 0.30 0.29 0.28 0.27 0.26 0.25 0.22 0.20 0.19 0.21 0.24 0.25 0.27 0.29 0.29
1.34 1.39 1.38 1.36 1.38 1.39 1.38 1.36 1.38 1.35 1.35 1.38 1.37 1.38 1.39 1.40 1.39 1.39 1.38 1.35 1.30 1.30 1.27 1.23 1.18 1.12 1.07 1.03 1.02 1.02 1.02 1.03 1.05 1.06 1.06 1.07 1.08 1.09 1.09 1.08 1.05 1.01 0.97 0.95 0.94 0.93 0.91 0.90 0.86 0.80 0.76 0.73 0.71 0.68 0.67 0.67 0.66 0.65 0.63 0.61 0.61 0.59 0.58 0.55 0.49 0.41 0.37 0.34 0.31 0.29 0.29 0.27 0.25 0.22 0.20 0.19 0.18 0.18 0.18 0.21 0.25 0.27 0.28 0.28 0.27
1.27 1.31 1.32 1.34 1.35 1.38 1.35 1.36 1.36 1.35 1.34 1.33 1.34 1.34 1.36 1.37 1.40 1.40 1.41 1.36 1.27 1.25 1.23 1.19 1.15 1.10 1.06 1.04 1.05 1.06 1.07 1.09 1.10 1.11 1.10 1.09 1.09 1.09 1.07 1.05 1.03 1.01 0.99 0.96 0.94 0.92 0.88 0.83 0.79 0.77 0.74 0.73 0.72 0.71 0.71 0.71 0.70 0.68 0.65 0.62 0.59 0.57 0.56 0.52 0.43 0.36 0.33 0.31 0.30 0.30 0.28 0.24 0.21 0.18 0.18 0.17 0.18 0.17 0.19 0.23 0.26 0.27 0.28 0.28 0.27
Wind_Speed
26 26 25 26 26 27 28 28 28 28 28 28 28 27 26 25 25 24 24 23 22 22 22 21 20 19 18 17 16 16 15 15 14 13 13 13 12 12 12 12 12 12 11 11 11 12 12 12 12 12 12 13 15 15 16 16 15 15 15 15 15 16 16 15 15 16 16 16 16 16 16 16 17 17 17 18 19 19 20 21 22 22 23 23 23
26 26 25 25 26 26 27 27 27 28 28 29 28 27 26 26 25 25 25 24 23 23 23 22 21 20 19 19 18 17 16 16 15 14 14 13 13 13 13 13 13 13 13 13 13 13 13 13 13 13 13 14 15 15 16 16 16 15 15 15 16 16 16 16 16 16 17 17 17 17 17 17 18 19 19 19 20 20 21 22 23 23 24 25 25
27 26 26 26 26 26 26 26 26 27 28 28 28 27 27 26 26 26 25 25 24 24 24 23 22 21 21 20 19 18 18 17 16 16 15 14 14 14 14 14 14 14 14 14 14 14 14 14 14 14 14 15 15 16 16 16 16 16 15 15 16 16 16 16 16 16 17 18 18 18 18 18 19 20 20 21 21 22 22 23 24 25 25 26 26
27 26 26 26 26 26 26 26 26 27 28 28 28 27 27 26 26 26 26 25 25 25 25 24 23 23 22 21 20 19 19 18 17 17 16 15 15 15 15 15 15 16 16 16 16 15 15 15 15 16 16 16 16 16 16 16 16 15 15 15 15 16 16 17 17 17 18 19 19 19 20 20 20 21 22 23 23 24 24 24 25 26 27 28 28
27 27 27 26 26 26 26 26 25 26 27 28 28 27 27 27 27 27 26 26 26 26 25 25 24 24 23 22 21 20 20 19 19 18 17 17 16 16 16 16 17 17 17 17 17 16 16 16 17 17 16 16 16 16 16 16 16 16 16 16 16 16 17 17 18 18 19 20 21 21 22 22 23 23 24 25 25 26 26 26 27 27 28 29 29
28 27 27 27 26 26 26 26 26 25 26 27 28 27 27 28 27 27 27 27 27 27 26 26 25 25 24 23 22 21 21 20 19 19 18 18 18 18 18 18 18 18 18 18 18 18 18 18 18 18 17 17 17 17 16 16 16 16 17 17 17 17 18 18 18 19 20 21 22 23 23 24 25 25 26 26 27 27 28 29 29 29 30 30 30
28 28 28 28 27 27 26 26 26 25 25 26 28 27 27 28 28 27 28 28 27 27 27 27 26 25 24 23 23 22 21 21 20 19 19 19 19 20 20 20 20 20 20 19 19 19 19 19 18 18 18 18 18 17 17 17 17 17 18 18 19 19 19 19 19 20 21 22 23 24 24 25 26 27 27 27 28 29 30 30 31 31 31 31 31
29 29 29 28 28 28 27 27 26 26 25 26 28 28 28 28 28 28 28 28 28 28 28 27 27 26 25 24 24 23 22 22 21 21 21 21 21 21 21 22 22 21 21 21 21 21 20 20 20 19 19 19 19 18 18 18 18 19 19 20 20 20 21 21 21 21 22 23 24 25 25 26 27 28 28 29 30 30 31 31 32 32 32 31 31
30 29 29 29 29 29 28 27 27 27 26 27 28 28 28 28 29 29 29 29 28 28 28 28 27 26 26 25 24 24 23 23 23 23 22 22 23 23 23 23 23 22 22 22 22 22 21 21 21 20 20 20 19 19 19 19 19 20 21 20 20 21 21 22 22 23 23 24 25 26 27 27 28 28 29 30 30 31 32 32 32 32 32 32 32
30 30 30 29 29 29 29 28 28 28 27 27 28 29 29 29 30 30 29 29 29 29 28 28 27 27 26 26 25 25 24 24 24 24 24 24 24 24 24 24 24 23 23 23 22 21 22 22 22 21 20 20 20 20 20 20 20 21 21 21 21 21 22 23 23 24 24 25 26 27 27 28 28 29 29 30 31 32 32 32 33 33 33 33 32
30 30 30 30 30 30 30 29 29 29 29 28 29 30 30 30 31 30 30 29 30 29 29 29 28 28 27 27 26 26 26 26 25 25 25 26 26 26 26 25 24 24 24 23 22 22 22 22 22 22 21 21 21 21 21 21 21 21 21 21 22 22 23 23 24 24 25 26 27 27 27 28 29 29 30 31 31 32 32 33 33 33 33 33 33
31 31 31 30 30 30 30 30 30 30 30 29 29 30 31 32 32 32 31 30 30 30 30 30 29 28 28 28 28 28 27 27 27 26 26 27 27 27 27 26 25 25 25 23 23 23 22 22 22 22 21 22 22 21 21 22 21 22 22 22 23 23 24 24 25 25 25 26 27 27 28 29 30 30 31 32 32 32 33 32 33 33 33 33 33
32 32 31 31 31 31 31 31 31 31 31 31 30 30 32 33 34 33 32 32 31 31 31 31 30 29 29 29 29 28 28 28 28 27 27 28 28 28 28 26 25 25 23 22 22 22 22 22 22 22 22 22 22 21 21 22 22 23 23 23 23 24 24 25 25 25 25 26 27 28 29 30 31 31 32 32 32 33 33 33 33 33 34 34 34
31 32 31 31 30 30 31 31 32 32 32 32 31 32 33 34 35 35 34 33 33 33 33 32 31 31 30 30 30 29 29 29 28 28 28 29 28 28 29 27 24 23 23 22 22 22 22 22 22 22 22 22 22 22 22 22 23 23 23 24 24 24 25 25 25 25 26 26 28 29 30 30 31 32 32 32 32 33 33 33 34 34 34 34 35
32 31 31 31 30 30 30 31 32 32 32 32 33 33 34 35 36 36 35 34 34 34 34 33 32 32 31 31 31 30 30 29 29 29 29 29 29 29 29 26 24 24 24 24 23 23 22 22 22 22 22 21 22 22 22 23 23 23 23 24 24 24 25 25 25 26 26 27 28 29 31 31 32 32 32 32 33 33 34 34 35 35 35 35 35
31 31 31 31 31 31 31 31 31 32 32 33 33 34 34 35 36 37 37 36 36 35 35 34 34 33 33 32 32 32 31 30 29 29 29 29 29 29 28 27 26 26 26 25 24 23 23 22 22 21 21 21 22 22 22 23 23 23 23 24 24 25 25 25 25 26 26 27 29 30 31 32 32 32 33 33 34 34 34 35 35 35 34 34 34
31 32 32 32 32 32 32 32 32 32 33 33 34 34 35 35 36 37 37 37 37 37 36 35 35 34 34 34 33 33 32 30 30 30 30 30 30 29 28 28 27 27 26 26 25 24 24 24 22 22 22 22 22 22 23 23 23 23 23 24 25 25 25 25 25 26 27 28 29 30 31 31 32 33 34 34 34 34 34 34 34 33 33 33 32
32 32 32 33 33 32 32 33 33 33 34 34 34 34 35 35 36 37 38 38 38 37 37 36 36 35 35 35 34 33 32 31 31 31 30 31 31 30 28 27 27 27 26 26 25 25 25 25 24 23 23 22 22 22 22 22 22 23 23 24 24 25 25 25 25 26 28 29 29 30 31 32 33 34 34 34 33 32 32 32 31 31 31 31 31
32 31 31 32 32 31 32 32 33 34 35 35 35 34 34 34 35 36 37 37 37 37 37 36 36 36 35 35 34 34 33 32 32 31 31 31 32 31 28 26 26 27 27 26 25 25 25 25 24 23 22 21 21 22 22 22 22 23 23 24 24 24 24 25 25 27 28 29 29 30 31 32 33 33 32 32 31 30 29 30 29 29 30 31 31
33 32 32 31 31 31 31 31 32 33 34 35 36 35 34 34 35 36 37 37 37 37 37 37 37 36 36 35 34 34 33 33 32 32 31 32 32 31 29 27 26 26 25 25 25 25 24 24 23 22 21 21 21 21 21 22 22 23 23 24 24 24 24 25 26 27 28 28 29 30 31 32 32 31 30 29 28 28 28 28 29 29 30 30 30
33 33 33 32 32 33 32 32 32 33 33 34 35 36 36 35 35 36 37 38 38 37 37 37 37 36 36 35 35 35 34 34 33 32 32 32 32 31 28 27 26 25 24 24 25 24 24 24 23 22 21 21 21 21 21 22 22 23 23 24 23 23 24 25 26 26 27 28 29 30 30 30 30 29 28 27 27 27 27 28 29 29 30 29 29
34 34 34 34 33 33 34 34 34 34 34 34 34 35 36 36 36 36 37 38 38 38 38 37 37 36 36 36 36 36 35 35 34 33 33 33 32 31 28 26 25 25 24 24 24 24 24 24 23 22 21 20 20 20 21 21 22 22 22 22 22 23 24 25 25 26 27 28 29 29 29 29 28 27 26 26 26 27 27 28 29 29 29 28 28
34 35 35 35 35 35 35 35 35 35 35 35 35 35 35 36 36 37 37 37 38 38 38 37 37 36 36 36 36 36 36 35 34 34 34 33 31 29 27 25 25 25 24 23 23 23 24 23 22 20 19 19 19 20 20 21 21 22 22 21 22 22 23 24 25 26 27 27 28 28 28 27 27 26 26 26 26 26 27 27 28 28 28 27 27
35 36 36 36 37 37 37 37 37 37 37 37 37 37 36 36 36 37 37 37 37 38 38 37 37 36 36 36 36 36 36 35 33 32 32 31 29 27 26 24 24 23 23 23 23 23 23 22 20 19 18 18 19 20 20 20 21 21 21 21 22 22 23 24 25 26 27 27 27 27 27 26 25 25 25 25 26 26 26 27 27 27 27 27 27
37 37 38 38 39 39 38 38 38 38 38 38 38 38 38 37 36 36 37 37 38 38 38 38 38 38 38 37 36 36 36 35 33 31 30 30 29 27 25 24 23 23 22 22 23 23 21 19 18 18 18 18 19 19 20 20 20 20 21 21 22 22 23 24 25 26 26 26 26 26 26 25 24 24 24 24 25 25 26 26 27 27 27 27 27
39 39 40 40 40 40 40 40 40 40 40 40 40 40 40 40 39 38 38 38 39 39 39 40 40 40 39 38 37 36 36 35 33 31 30 30 28 26 25 25 24 23 22 22 22 21 19 18 18 18 18 18 19 19 19 19 20 20 20 21 21 22 23 24 25 25 25 25 25 25 24 24 23 24 24 24 24 25 25 25 26 26 26 26 26
39 40 41 41 41 41 41 42 42 42 42 42 43 42 42 42 41 41 41 41 41 40 41 42 42 42 42 40 38 36 36 35 33 32 30 30 28 26 26 25 24 23 22 22 21 20 19 18 18 18 18 18 18 18 18 19 20 20 21 21 21 22 24 24 25 25 25 25 25 24 24 23 23 23 23 23 24 24 24 25 25 25 25 25 25
39 40 41 42 42 43 43 44 44 44 44 45 45 44 44 44 44 44 44 44 44 44 43 43 43 44 43 41 38 37 35 34 33 31 30 29 28 27 27 26 24 23 22 21 20 20 19 18 18 18 18 18 18 18 18 19 20 20 20 21 22 23 24 24 25 25 25 24 24 23 23 22 22 23 23 22 23 24 24 24 24 24 24 24 24
38 39 40 41 42 43 43 43 44 45 45 46 46 45 44 45 46 47 47 47 47 46 45 43 43 42 42 40 39 36 34 33 33 31 29 29 28 27 26 25 24 23 22 21 20 19 18 18 18 18 18 18 17 18 18 19 19 20 20 21 22 23 23 24 24 25 24 24 23 22 22 22 22 22 21 22 23 23 23 23 23 24 24 23 24
38 39 39 39 40 41 41 42 43 44 45 45 45 45 45 45 46 47 48 49 49 49 48 47 45 42 40 38 37 36 33 32 32 30 29 30 29 27 25 25 24 23 22 21 19 19 18 18 18 18 18 18 18 18 19 19 20 20 20 21 22 23 23 24 24 24 23 23 22 21 21 21 21 20 21 21 22 22 22 22 23 23 23 23 24
39 40 40 40 41 42 42 43 43 44 44 44 45 46 46 45 45 46 48 49 50 51 52 51 48 45 42 37 35 34 32 30 29 29 29 30 29 27 25 24 23 23 22 20 19 19 19 18 18 18 18 18 18 18 19 19 20 20 20 21 22 23 23 24 24 24 23 22 21 20 20 20 20 20 20 21 21 22 22 22 22 22 23 24 24
40 41 42 42 43 44 44 45 45 45 45 44 44 45 45 44 44 44 45 46 48 50 51 49 47 45 43 39 36 33 31 29 28 28 29 29 28 26 24 23 23 22 21 20 19 19 19 19 19 18 18 18 18 19 19 19 20 20 20 21 22 22 23 24 23 23 22 21 19 19 18 18 19 19 20 20 21 21 22 22 22 22 23 24 24
39 41 43 44 45 46 46 46 45 44 44 44 44 44 44 44 44 42 40 40 39 38 41 42 42 41 40 39 37 35 33 30 29 29 28 28 26 24 22 22 22 22 21 20 20 19 19 19 19 18 19 19 19 19 19 19 20 20 20 21 22 22 23 23 22 21 20 19 18 17 17 18 18 19 19 20 20 21 22 22 22 22 23 24 24
35 37 39 41 43 44 45 45 45 44 43 43 43 43 44 44 43 40 38 35 32 29 30 33 35 36 37 37 37 37 35 32 30 28 27 26 24 22 21 22 21 21 21 20 20 20 19 19 19 19 19 19 19 19 19 20 20 20 20 21 22 22 22 22 20 19 18 17 17 16 17 17 18 18 19 20 20 21 21 21 22 22 23 23 23
33 35 37 39 39 40 41 41 42 42 42 41 40 39 38 37 36 35 34 32 30 28 28 28 29 31 32 33 34 36 35 33 29 27 26 24 23 22 21 21 21 21 21 21 20 20 20 19 19 19 19 19 19 19 20 20 20 20 20 21 21 21 21 20 18 17 17 16 16 16 16 17 18 18 19 19 20 20 21 21 22 22 22 23 23
28 30 32 35 37 37 36 35 33 33 34 34 32 31 30 29 29 29 29 27 26 25 25 26 28 28 29 29 30 32 32 30 28 26 25 24 23 22 22 21 21 21 21 21 21 20 20 19 19 19 19 19 19 20 20 20 20 20 20 20 20 20 19 18 17 16 16 15 15 15 16 17 17 18 18 19 19 20 20 21 21 22 22 22 22
23 23 24 23 23 23 25 26 26 25 26 25 25 25 25 24 24 23 22 22 22 21 21 22 24 24 24 23 24 25 26 26 25 25 24 24 23 22 22 22 21 21 21 21 21 20 20 20 19 19 19 19 20 20 20 19 19 19 19 19 19 18 18 17 17 16 16 15 15 15 16 16 17 17 18 18 19 20 20 21 21 21 21 22 22
19 18 17 14 11 10 12 16 19 20 20 20 20 21 22 22 21 20 18 18 20 21 21 21 21 20 20 21 22 22 22 22 23 23 23 23 22 22 22 22 21 21 21 21 20 20 20 20 19 19 20 20 20 20 19 19 19 19 18 18 18 17 17 17 16 16 15 15 15 15 15 16 17 17 18 18 19 19 20 20 20 21 21 21 22
16 14 11 9 8 7 7 10 14 16 17 16 16 17 18 18 19 18 18 18 18 20 21 21 20 19 19 20 21 21 21 21 22 22 22 22 22 21 21 21 21 21 20 20 20 20 20 20 19 19 20 20 20 19 19 19 19 18 17 17 17 17 16 16 16 15 15 15 15 15 16 16 17 17 17 18 18 19 19 19 20 20 21 21 21
14 13 11 9 9 8 7 8 10 13 15 16 15 15 15 15 16 16 16 17 17 18 18 18 18 18 19 20 21 21 21 21 22 22 22 22 22 21 21 20 20 20 20 20 20 20 20 20 19 19 20 20 19 19 19 18 18 17 17 17 17 16 16 16 15 15 15 15 15 16 16 16 17 17 17 17 18 18 19 19 19 20 20 21 21
12 12 12 11 11 11 10 9 9 11 12 13 14 14 14 14 15 16 16 15 15 15 16 16 17 18 19 20 21 21 21 21 21 21 22 22 22 21 21 20 20 20 20 20 20 20 20 20 20 20 20 20 19 19 18 18 17 17 17 17 16 16 16 16 15 15 15 16 16 16 16 16 16 16 16 17 17 18 18 19 19 19 20 20 21
12 12 11 11 11 11 11 11 11 10 9 10 11 12 13 14 15 16 16 15 15 16 17 17 18 18 19 19 20 20 19 20 20 21 21 21 21 21 21 21 20 20 20 21 21 20 20 20 20 20 20 20 19 19 18 17 17 17 17 17 16 16 16 16 16 16 16 16 16 16 16 16 16 16 16 16 16 17 18 18 19 19 19 20 20
12 11 10 10 10 10 11 12 12 12 11 11 11 11 12 14 16 17 16 16 16 17 17 17 18 18 18 18 18 18 18 18 19 19 20 20 21 21 21 21 21 21 21 21 21 20 20 20 20 20 20 20 19 18 18 18 17 17 17 17 17 17 16 16 16 16 16 17 17 17 17 17 16 16 15 15 16 17 18 18 18 19 19 19 20
11 11 11 10 11 11 12 13 12 12 12 13 13 13 13 15 16 17 17 17 16 16 16 16 16 17 17 17 17 16 17 17 18 18 19 19 20 20 21 21 21 21 21 20 20 20 20 20 20 20 20 19 19 18 18 18 18 17 17 17 17 17 17 17 17 17 17 17 17 17 17 17 16 15 15 15 16 17 17 18 18 18 19 19 19
11 11 11 11 12 13 14 14 15 14 14 14 15 15 15 16 16 17 16 16 17 17 17 17 17 16 16 17 16 16 16 17 17 18 18 19 20 20 21 21 20 20 20 20 20 20 20 20 20 20 20 20 19 18 18 18 18 18 17 17 17 17 17 17 17 17 17 17 17 17 17 16 16 15 15 15 16 16 17 17 17 18 18 19 19
12 12 12 12 13 14 15 16 17 18 17 16 16 16 15 15 16 16 16 16 16 16 17 17 17 17 17 17 17 16 17 17 18 18 19 19 20 20 21 20 20 20 20 20 20 20 20 20 20 20 20 19 19 19 19 19 18 18 18 18 18 17 17 17 17 17 17 18 17 17 17 16 16 16 16 16 16 16 17 17 17 17 18 18 18
12 12 13 13 14 15 15 16 17 17 17 16 15 15 14 15 16 17 17 16 16 16 16 17 17 17 17 17 17 17 17 18 18 19 19 20 20 20 20 20 20 20 20 20 20 20 20 19 20 20 19 19 19 19 19 19 19 19 19 18 18 17 17 17 17 18 18 18 17 17 16 16 16 16 16 16 16 16 16 16 17 17 17 18 18
12 13 13 13 13 14 14 15 15 15 16 16 15 15 14 15 15 16 16 16 16 16 16 17 17 17 17 17 17 17 18 18 19 19 20 20 20 20 20 20 20 20 20 20 20 20 19 19 20 19 19 19 20 20 20 20 19 19 18 18 17 17 17 18 18 18 18 17 17 16 16 16 16 17 16 16 16 16 16 16 16 17 17 17 17
12 12 12 13 13 13 13 13 13 13 14 14 15 15 15 16 16 16 17 17 17 17 17 17 17 17 17 17 17 17 18 19 19 20 20 20 20 19 20 20 20 21 21 21 21 20 20 20 20 20 20 20 21 20 20 20 19 19 18 18 18 18 18 18 18 18 17 17 16 16 16 17 17 17 17 16 16 16 16 16 16 17 17 17 17
11 11 11 12 12 11 11 11 11 11 12 13 14 15 16 16 16 16 16 16 16 16 17 17 17 17 17 17 18 18 19 20 20 20 20 20 20 20 20 20 21 21 21 21 21 21 21 21 22 22 22 21 21 21 21 20 20 19 19 18 18 18 18 18 18 17 17 16 16 16 17 17 17 17 16 16 16 16 16 16 16 16 16 17 17
11 11 11 11 10 10 10 10 10 10 11 12 14 15 15 15 15 15 15 15 15 16 16 17 17 17 18 18 19 19 20 20 20 20 20 20 20 20 20 20 21 21 22 22 22 23 23 23 23 23 22 22 22 22 21 21 20 20 19 19 19 19 19 18 17 17 17 17 17 17 17 17 17 16 16 16 16 16 16 16 16 16 16 16 17
Wind_Direction
231 232 232 232 233 233 234 234 234 234 234 234 235 234 233 231 230 229 229 229 227 225 224 226 227 228 228 230 232 235 240 243 248 253 258 262 265 267 271 275 279 284 288 293 297 299 298 299 301 303 304 304 303 304 303 302 301 298 297 296 295 294 295 295 294 294 294 294 294 295 296 295 295 294 295 295 294 292 291 290 291 292 293 293 293
230 231 231 232 232 233 234 234 235 235 234 234 234 233 232 230 229 228 229 228 226 225 225 226 228 228 229 231 233 236 240 244 247 252 256 261 264 266 269 272 277 282 286 290 294 295 294 295 299 303 304 304 304 304 304 303 302 300 299 299 296 293 292 293 292 291 291 293 293 294 295 294 294 294 294 294 295 295 293 292 293 293 293 293 293
230 230 231 231 232 233 234 235 235 234 233 233 232 230 230 229 228 228 228 227 225 225 226 227 228 228 230 232 234 237 241 244 247 251 255 260 262 265 268 271 275 280 284 288 292 294 293 292 297 301 303 303 303 303 304 303 302 300 299 300 298 294 292 292 292 291 291 292 293 294 294 294 293 293 293 293 295 296 295 294 294 294 294 294 293
229 229 230 231 231 233 234 235 235 235 233 232 230 228 228 227 227 227 227 226 225 226 227 227 228 229 230 233 235 238 241 244 248 251 255 259 261 264 268 271 275 278 281 285 289 292 291 290 294 299 300 300 301 303 304 303 301 299 298 299 297 294 292 292 292 292 292 292 294 294 294 294 294 293 293 294 295 295 295 296 296 295 294 293 293
227 228 229 230 231 233 234 235 236 235 233 231 229 227 227 227 227 227 226 226 226 227 227 228 228 229 232 234 236 239 241 244 248 251 254 258 262 265 268 271 274 277 280 282 285 288 289 288 291 296 298 296 298 301 302 300 299 298 298 298 298 295 293 292 292 292 291 291 292 293 294 295 295 294 294 295 295 295 295 295 296 296 295 293 292
227 227 228 229 231 232 234 236 236 236 234 230 228 227 227 227 227 227 226 226 227 228 228 228 229 231 233 235 237 240 242 245 247 250 254 258 262 266 269 271 274 277 279 280 282 285 287 288 290 294 294 293 293 296 297 296 297 298 297 296 296 295 293 291 292 292 291 291 291 292 293 295 295 295 295 295 295 296 296 296 296 295 295 294 293
226 227 228 229 230 232 234 236 236 236 235 231 228 227 227 227 227 227 227 227 228 228 228 228 229 232 234 236 238 241 243 245 248 250 254 258 263 267 270 271 274 278 280 280 281 283 285 287 288 292 293 291 290 291 292 293 295 297 296 295 295 294 293 291 291 292 292 293 293 293 293 294 294 294 294 295 296 296 297 297 297 296 295 294 293
226 227 228 229 230 232 234 235 236 236 235 233 230 229 229 228 227 227 228 228 228 228 228 229 230 232 235 237 240 242 243 246 248 251 254 259 263 268 270 271 274 278 279 280 280 281 283 285 287 290 291 288 287 288 289 291 294 296 296 296 294 293 292 291 291 292 293 294 294 294 294 295 295 294 295 295 296 296 297 297 296 296 295 294 293
226 228 229 230 232 233 233 235 236 236 236 234 232 230 229 228 227 227 229 229 228 228 228 229 231 233 235 238 240 242 245 247 250 253 256 260 264 268 269 271 273 277 279 281 281 280 281 283 285 287 287 285 285 287 288 291 294 296 296 296 295 294 293 291 291 292 293 294 294 295 296 296 296 296 296 296 296 296 296 296 296 295 295 295 294
228 229 231 232 233 232 232 234 235 236 236 235 233 231 230 228 227 228 229 229 228 228 228 229 232 234 236 238 241 243 247 250 253 255 257 261 265 267 269 270 272 277 280 280 280 281 282 282 283 284 283 282 284 285 287 290 292 294 295 295 295 294 292 291 292 292 293 294 295 297 298 298 298 298 297 297 296 296 296 296 296 296 296 296 296
229 230 232 233 233 232 232 232 234 235 236 235 234 232 231 229 228 228 228 228 227 227 228 229 232 235 238 240 242 245 249 252 254 256 258 261 264 267 268 270 271 275 278 277 276 280 283 283 283 284 282 282 283 284 286 289 291 292 293 294 293 293 293 293 293 294 294 295 297 298 298 298 298 298 297 297 297 297 297 297 297 297 297 296 296
230 231 233 233 233 232 232 232 232 234 236 236 235 233 231 230 229 229 228 227 227 227 228 231 234 237 240 242 245 248 251 253 255 257 259 261 264 267 267 268 270 273 276 275 274 278 283 284 284 284 283 281 282 284 287 289 291 292 293 293 293 293 293 294 294 295 295 296 297 297 296 297 298 298 298 298 298 298 298 298 298 297 297 296 296
231 232 233 233 233 232 232 231 232 233 235 236 236 234 232 231 230 230 229 228 228 228 230 232 236 239 242 244 247 250 252 254 256 258 261 262 263 265 266 266 269 274 276 276 275 277 283 285 284 285 283 281 282 285 288 291 292 293 293 293 293 293 294 294 295 295 296 296 296 296 297 297 298 298 299 299 299 299 299 299 299 298 297 297 296
232 233 233 233 233 233 232 232 233 233 234 235 236 235 234 233 232 231 231 230 230 230 232 234 237 240 243 246 249 252 254 255 257 258 261 261 261 264 266 267 270 274 275 276 276 279 284 286 285 284 284 282 283 285 288 291 292 293 293 294 294 294 294 294 295 296 296 296 296 297 298 298 299 300 300 300 299 299 299 299 299 299 298 298 297
233 233 233 233 234 234 234 235 234 234 234 235 236 237 237 235 233 232 232 232 233 233 234 236 239 241 244 247 250 253 254 255 256 258 260 260 260 263 266 269 273 274 274 276 277 279 282 284 285 284 284 283 284 286 288 290 291 292 293 294 295 295 294 295 296 296 297 297 297 298 299 299 300 301 300 300 300 300 300 300 300 300 299 298 298
234 234 234 235 235 235 236 236 236 235 234 235 237 238 238 237 235 233 233 234 235 236 236 238 240 242 245 247 250 252 254 255 256 258 259 259 260 262 266 272 274 272 274 278 280 282 284 285 285 285 284 283 284 286 288 289 290 292 293 294 295 296 296 297 297 298 298 298 299 300 300 301 301 301 301 302 302 301 301 301 301 301 300 299 299
235 236 237 237 237 237 237 237 237 236 235 235 237 238 238 238 236 234 233 234 236 237 238 239 241 243 245 247 249 252 254 255 255 257 258 258 259 261 265 270 272 271 273 278 282 284 287 286 285 286 285 285 285 286 287 289 290 290 292 294 295 296 297 298 299 299 299 300 300 301 301 301 302 303 303 303 303 302 303 303 302 302 301 300 299
237 238 240 239 239 239 238 238 238 237 236 236 237 238 239 239 237 235 234 235 237 239 239 240 242 244 245 247 248 251 253 254 255 256 257 258 259 260 263 267 270 272 274 278 281 283 284 284 284 286 286 285 285 286 287 288 288 289 291 293 295 296 296 297 298 300 301 301 302 302 302 303 305 305 305 305 304 304 304 304 303 303 302 301 300
239 240 241 239 238 238 238 238 239 238 238 237 237 238 239 239 238 235 234 236 238 239 239 240 242 244 245 246 247 249 252 254 254 255 256 257 258 260 263 266 270 272 273 276 280 282 282 283 284 284 284 283 284 286 286 286 287 290 292 293 294 295 296 296 298 300 301 302 303 304 305 306 307 306 306 306 306 305 305 305 305 305 304 303 302
242 242 241 240 239 239 239 239 239 240 240 238 238 238 238 238 238 236 235 237 238 239 240 241 242 244 245 246 247 249 251 253 254 254 255 257 258 260 263 267 271 273 273 276 280 282 282 284 285 283 281 282 283 285 285 285 287 290 292 294 294 294 295 297 299 300 301 302 304 306 307 308 308 307 306 307 307 306 306 307 307 307 307 305 304
244 243 242 241 241 240 241 241 241 242 242 240 239 239 239 238 238 237 237 237 238 238 239 240 242 243 244 245 247 249 251 253 254 254 255 257 258 259 263 268 272 274 275 276 279 280 281 284 285 282 279 280 281 282 284 285 288 291 293 294 295 295 296 298 299 301 302 304 305 307 309 309 308 307 306 306 307 308 308 308 309 309 308 307 307
245 243 242 242 242 242 242 243 243 243 243 242 241 241 240 239 238 238 238 238 238 238 239 240 241 242 244 246 247 250 252 252 254 255 255 256 256 257 262 267 270 273 275 276 277 279 281 284 284 280 277 278 280 282 284 286 288 291 293 294 295 296 297 298 300 301 303 305 307 308 310 309 307 306 306 307 308 309 310 310 311 311 310 309 309
245 243 242 242 243 243 244 245 245 245 243 242 241 241 241 240 239 238 238 238 238 238 239 240 240 242 244 246 247 250 252 253 254 255 255 254 252 253 259 265 268 270 274 275 276 279 282 283 282 278 275 277 279 282 284 286 289 291 293 294 295 296 297 299 301 302 304 306 307 308 309 309 308 307 307 308 309 311 312 313 313 313 313 312 311
245 245 244 244 244 245 245 246 247 246 244 242 241 241 240 240 240 239 239 239 239 239 239 239 239 240 242 244 247 250 250 252 254 256 256 254 250 251 258 264 266 269 273 274 276 280 281 280 277 274 274 276 279 282 284 286 289 292 293 294 295 296 298 300 301 303 304 306 307 308 308 308 308 308 309 310 311 313 315 315 316 315 314 314 313
247 246 246 246 246 246 247 247 247 246 245 243 242 241 241 241 241 241 240 240 240 239 239 239 239 240 242 244 247 249 249 250 253 255 256 254 250 250 257 262 265 269 272 274 276 278 277 275 273 272 274 276 279 282 284 288 291 293 293 294 295 297 299 300 301 303 304 305 306 307 307 307 307 308 309 311 312 314 316 316 317 316 316 315 314
249 249 249 248 248 247 248 248 247 246 246 245 244 243 242 242 242 242 241 241 241 240 240 239 239 241 242 243 244 246 248 249 251 255 256 251 247 251 258 261 264 268 271 272 274 275 273 271 271 272 273 276 279 282 286 290 292 293 293 293 295 298 300 301 302 303 304 305 305 306 306 306 307 307 309 311 312 314 315 317 317 317 317 317 317
250 250 250 250 249 248 248 248 248 247 246 245 245 245 244 242 242 241 241 241 242 242 241 241 240 241 242 243 242 244 247 249 249 253 254 248 245 252 259 260 263 267 269 270 272 272 271 270 270 271 273 276 279 283 287 290 291 292 293 294 296 299 301 302 303 303 304 304 304 305 305 305 306 307 309 310 312 314 315 316 317 318 318 319 319
251 251 251 250 249 249 248 248 248 247 246 245 245 245 244 243 242 241 242 241 242 243 244 243 242 241 240 240 240 242 246 247 246 250 250 243 243 254 259 259 262 264 265 267 269 269 269 268 268 271 273 275 279 283 286 289 290 292 293 295 298 300 301 302 303 303 303 304 304 303 304 304 305 307 309 311 313 314 316 317 318 319 320 321 321
255 255 254 252 251 250 249 249 249 248 247 247 246 245 245 245 243 243 244 243 243 243 243 243 243 242 240 239 237 239 243 243 242 246 246 241 245 255 259 257 259 261 260 263 265 265 266 266 267 269 271 273 278 282 285 288 290 291 293 296 299 301 302 302 302 303 303 303 302 302 302 302 305 307 310 312 314 315 317 318 319 320 321 322 322
258 257 256 255 253 252 250 249 249 248 248 248 246 245 247 249 247 245 246 245 243 241 241 242 242 241 241 240 237 237 240 240 240 243 244 243 248 256 258 255 256 257 256 259 261 262 263 265 265 267 270 273 277 281 284 287 289 290 293 296 299 301 301 301 302 302 302 301 301 300 300 302 304 307 310 313 315 316 318 319 320 321 323 324 324
259 258 257 256 254 252 251 250 249 249 249 248 246 245 247 248 248 248 248 246 243 241 240 239 238 237 238 238 236 236 238 239 239 241 243 245 249 253 253 253 254 253 253 256 259 260 261 263 264 267 270 273 277 281 284 286 288 290 294 297 299 300 301 301 302 302 301 300 299 298 299 301 305 308 311 313 315 317 318 319 320 322 324 325 326
260 259 258 257 255 253 252 251 250 249 248 247 246 245 245 245 248 251 251 249 246 242 238 235 234 233 233 233 233 234 237 239 240 241 244 246 247 248 249 251 251 250 250 253 256 258 259 262 263 266 270 273 276 280 283 285 287 290 294 298 300 300 301 302 302 302 300 299 298 297 299 302 305 308 311 313 316 317 319 320 321 322 324 326 327
262 261 259 258 257 255 253 251 249 248 248 246 245 245 245 245 247 248 248 247 247 242 235 232 230 228 227 228 231 233 236 240 242 243 244 245 244 244 247 249 248 247 248 251 255 257 259 261 263 265 269 272 276 279 281 283 286 290 294 298 300 301 302 302 302 301 299 297 296 297 299 303 306 309 312 314 317 318 319 320 322 324 325 327 328
266 265 264 262 259 256 253 250 248 247 247 246 245 246 246 245 243 240 237 237 240 239 236 234 230 226 225 228 230 231 234 240 243 241 240 240 239 241 246 247 245 247 249 251 254 257 258 260 263 265 269 272 274 277 280 282 286 290 295 298 300 301 302 302 301 299 298 296 295 297 300 304 307 310 313 315 317 319 320 322 323 325 326 328 329
270 270 269 266 263 260 256 251 245 243 242 242 243 244 243 240 236 231 227 228 232 235 235 233 227 224 225 229 231 232 234 237 238 235 233 234 236 239 242 242 243 246 249 251 254 256 257 259 262 265 268 271 273 276 278 281 286 291 295 298 299 300 301 300 299 297 296 295 295 298 302 306 309 311 313 315 318 319 321 323 324 325 327 328 329
274 274 274 271 267 263 256 248 241 237 235 235 237 239 238 235 230 224 221 223 226 228 227 225 224 227 231 233 232 230 229 229 228 228 230 232 235 238 239 239 241 244 247 250 252 254 256 260 263 265 267 270 272 275 278 282 287 291 294 296 297 298 298 297 296 295 295 294 296 299 303 307 310 312 314 316 318 320 322 324 325 326 327 328 329
279 280 283 282 273 259 246 237 234 233 232 233 234 234 233 229 222 215 213 214 214 213 213 213 216 221 224 224 221 219 218 220 223 227 230 232 235 237 238 239 240 243 245 248 251 253 256 259 262 265 267 269 271 274 278 282 287 291 292 293 294 295 295 294 293 293 294 293 295 298 303 307 310 312 314 317 319 321 323 324 325 326 327 328 329
282 284 287 287 278 258 236 227 225 225 226 227 225 221 217 215 213 210 211 212 210 209 208 208 209 211 213 214 214 214 216 219 223 228 231 233 235 237 237 238 240 243 245 247 250 253 256 259 262 264 266 268 270 274 278 283 287 289 289 290 291 292 292 291 291 292 291 292 294 298 303 307 311 312 314 316 319 321 323 325 326 327 328 328 329
281 280 280 277 273 262 237 221 216 214 211 210 208 204 202 205 208 210 211 211 209 208 208 209 212 214 215 215 217 217 219 222 225 229 231 232 233 234 236 238 240 243 245 248 250 254 257 259 261 263 265 267 270 274 279 282 284 285 286 288 289 290 289 289 289 289 289 291 294 298 302 306 309 312 314 316 318 321 323 325 327 328 328 328 329
277 268 263 263 264 257 239 221 211 203 197 195 197 198 199 201 204 207 209 209 207 206 208 211 214 216 217 219 219 220 222 225 226 227 227 228 230 233 235 237 240 243 246 249 251 254 257 258 260 261 264 267 271 275 278 280 280 282 284 286 287 287 286 286 287 287 288 291 294 297 300 304 308 311 313 314 317 321 323 324 326 327 328 328 329
273 265 260 260 257 248 239 229 215 201 195 196 199 201 200 199 200 203 205 204 204 206 211 215 218 221 222 222 221 221 223 224 225 225 225 227 229 231 234 238 241 244 248 250 253 254 256 257 259 261 264 267 271 273 275 276 277 279 282 284 284 284 284 284 285 286 288 291 293 296 299 303 306 308 311 313 316 319 322 323 325 326 327 329 330
271 267 263 260 251 240 234 230 220 211 207 208 209 209 208 205 203 203 206 211 216 219 221 222 223 223 222 220 219 221 224 224 224 225 226 228 230 233 237 241 244 247 249 252 254 254 255 256 259 261 264 267 269 270 271 272 274 277 280 281 282 281 282 282 283 285 287 290 292 294 297 300 303 306 308 311 314 317 320 322 323 325 327 329 330
266 264 261 255 241 230 231 232 228 223 225 228 226 221 215 213 213 216 222 229 231 229 226 221 217 216 217 218 220 223 225 226 226 228 229 231 234 237 241 244 247 249 252 253 254 254 255 257 259 262 264 266 267 268 269 271 273 275 277 279 279 279 280 281 282 284 286 288 290 292 295 298 301 303 305 308 311 315 317 320 322 324 326 328 329
263 259 255 249 239 234 236 237 233 231 234 237 236 232 227 225 227 229 231 231 227 220 215 211 209 211 216 219 222 225 227 229 229 231 233 235 238 241 245 247 249 250 251 251 252 253 256 258 259 261 264 265 265 266 268 270 272 274 276 277 277 278 279 280 281 283 285 287 288 290 293 295 297 299 301 304 308 312 315 317 320 322 325 327 329
262 257 252 247 244 242 240 238 238 241 244 245 244 241 238 234 231 230 226 220 215 213 212 213 215 218 221 222 224 228 230 231 233 235 237 240 242 245 246 248 248 249 249 250 252 254 256 258 259 260 261 262 263 265 267 269 271 273 274 276 276 277 278 279 280 282 284 286 287 289 290 291 293 294 297 301 305 309 312 315 317 320 323 325 328
261 257 254 252 251 251 249 247 247 248 249 249 247 243 236 229 225 223 219 216 215 216 218 220 222 225 226 226 229 232 234 235 237 238 241 243 246 246 246 246 247 247 248 250 252 255 256 257 258 259 260 260 262 265 267 268 269 270 271 273 274 276 277 278 279 282 284 286 287 287 287 287 289 291 294 298 302 306 309 312 314 317 320 324 327
262 259 257 257 258 259 258 254 252 251 251 250 246 239 231 225 222 220 218 217 217 219 221 224 226 228 229 230 233 236 239 240 241 242 244 246 246 246 246 246 247 248 249 251 253 255 256 256 257 258 259 260 261 264 266 267 267 268 268 269 270 272 275 276 279 282 284 285 285 285 284 285 287 289 292 296 300 303 305 308 311 314 318 321 324
262 261 260 261 262 261 259 255 253 252 251 247 241 234 228 223 219 217 215 215 218 221 225 228 229 229 231 234 238 241 243 244 244 244 245 246 246 247 247 247 248 249 250 252 254 254 255 255 256 257 258 260 262 264 266 267 266 266 265 266 267 269 272 275 278 281 282 282 282 283 283 284 285 287 290 293 296 299 302 304 308 312 315 319 321
264 263 264 265 266 264 260 256 253 251 247 241 235 230 226 224 222 222 222 223 226 229 231 232 231 232 235 239 241 243 245 245 245 245 246 247 249 250 249 249 250 251 252 253 254 254 254 255 256 257 259 261 263 264 265 265 265 264 263 263 264 267 270 274 277 279 278 278 279 281 283 284 285 286 288 291 293 296 298 301 305 309 312 315 317
265 265 265 266 265 262 259 254 249 245 242 237 232 229 229 229 229 229 230 229 228 229 231 232 233 236 241 243 243 244 245 246 246 247 248 249 251 251 251 252 253 253 254 254 254 255 255 256 257 259 260 261 262 263 263 263 262 262 261 261 262 265 269 273 275 274 273 274 276 280 282 284 285 285 287 289 291 293 296 299 302 305 308 311 314
266 265 265 264 261 258 257 253 244 239 238 235 231 229 229 229 228 227 228 226 224 226 231 235 239 243 247 248 247 247 247 247 248 249 251 252 253 253 254 255 255 255 254 254 255 255 257 258 259 259 260 260 261 261 261 261 261 261 260 260 262 265 269 272 272 271 270 271 274 278 281 283 284 284 285 287 289 291 294 297 299 302 304 307 310